{"data":{"norad_id":69584,"epoch":"2026-09-17T10:30:42.187392Z","epoch_age_seconds":293604,"freshness":"STALE","line1":"1 69584U 26138C   26260.43798828 -.00000024  00000+0  75846-4 0  9997","line2":"2 69584  55.1417 301.2052 0007268 305.2309  54.7980 14.06258098 13072","mean_motion":14.06258098,"eccentricity":0.0007268,"inclination_deg":55.1417,"raan_deg":301.2052,"arg_perigee_deg":305.2309,"mean_anomaly_deg":54.798,"bstar":7.5846e-5,"rev_number":1307,"period_min":102.39941032503,"perigee_km":866.93530026278,"apogee_km":877.47439717408,"semimajor_km":7250.3418487184,"source":"CELESTRAK","updated_at":"2026-09-20T09:00:24.996000Z"}}